Flag for Luxembourg Weather past 2 weeks in Differdange, Luxembourg

Now
57 °F

Clear.


Feels Like: 57 °F
Forecast: 55 / 71 °F
Wind: 5 mph from East

Location: Luxembourg Airport

Current Time: Sep 16, 2014 at 2:54:05 AM

Latest Report: Sep 16, 2014 at 1:50 AM


Visibility: 5 mi

Pressure: 29.98 "Hg

Humidity: 94%

Dew point: 55 °F

Location of DifferdangeLocation

Historic Weather in Differdange — Graph

°F

Differdange temperature yesterday

Maximum temperature yesterday: 70 °F (at 2:50 PM)
Minimum temperature yesterday: 54 °F (at 7:20 AM)
Average temperature yesterday: 61 °F

Past Weeks' High & Low Weather Summary

 TemperatureHumidityPressure
High75 °F (Sep 5, 4:20 PM)100% (Sep 1, 1:20 AM)30.21 "Hg (Sep 1, 1:20 AM)
Low48 °F (Sep 1, 4:50 AM)43% (Sep 12, 4:20 PM)29.92 "Hg (Sep 6, 5:20 AM)
Average61 °F78%30.07 "Hg
* Reported Sep 1 1:20 AM — Sep 16 1:50 AM, Differdange, Weather by CustomWeather, © 2014

Note: Actual official high and low records may vary slightly from our data, if they occured in-between our weather recording intervals... More about our weather records

Advertising

Differdange weather history for previous 24 hours

 ConditionsComfort  
Time TempWeatherWind HumidityBarometerVisibility
1:50 AM
Sep 16
57 °FClear.5 mph94%29.98 "Hg5 mi
1:20 AM59 °FClear.6 mph88%29.98 "Hg5 mi
12:50 AM59 °FPassing clouds.6 mph88%29.98 "Hg6 mi
12:20 AM59 °FPassing clouds.7 mph88%29.98 "HgN/A
11:50 PM
Sep 15
57 °FPassing clouds.2 mph94%30.01 "HgN/A
11:20 PM59 °FClear.3 mph88%30.01 "Hg10 mi
10:50 PM59 °FClear.6 mph88%30.01 "Hg10 mi
10:20 PM61 °FPassing clouds.5 mph83%30.01 "HgN/A
9:50 PM61 °FPassing clouds.5 mph88%30.01 "HgN/A
9:20 PM61 °FClear.3 mph83%30.01 "Hg10 mi
8:50 PM63 °FClear.3 mph77%29.98 "Hg10 mi
8:20 PM63 °FSunny.2 mph83%29.98 "Hg10 mi
7:50 PM63 °FPassing clouds.3 mph83%29.98 "HgN/A
7:20 PM66 °FPartly sunny.3 mph73%29.98 "HgN/A
6:50 PM66 °FPartly sunny.3 mph73%29.98 "HgN/A
6:20 PM68 °FPartly sunny.5 mph69%29.98 "HgN/A
5:50 PM68 °FBroken clouds.5 mph69%29.98 "HgN/A
5:20 PM68 °FPartly sunny.3 mph64%29.98 "HgN/A
4:50 PM70 °FPartly sunny.6 mph64%29.98 "HgN/A
4:20 PM70 °FScattered clouds.6 mph64%29.98 "HgN/A
3:50 PM68 °FScattered clouds.6 mph69%29.98 "HgN/A
3:20 PM68 °FScattered clouds.2 mph64%29.98 "HgN/A
2:50 PM70 °FScattered clouds.5 mph60%29.98 "HgN/A
2:20 PM68 °FScattered clouds.6 mph64%30.01 "HgN/A
1:50 PM66 °FScattered clouds.6 mph68%30.01 "HgN/A
1:20 PM66 °FScattered clouds.7 mph73%30.01 "HgN/A
12:50 PM66 °FScattered clouds.7 mph73%30.01 "HgN/A
12:20 PM64 °FScattered clouds.6 mph78%30.01 "HgN/A
11:50 AM64 °FPassing clouds.7 mph78%30.04 "HgN/A
11:20 AM63 °FPassing clouds.6 mph77%30.04 "HgN/A
10:50 AM61 °FScattered clouds.6 mph83%30.04 "HgN/A
10:20 AM59 °FPassing clouds.6 mph88%30.04 "HgN/A
9:50 AM55 °FPassing clouds.6 mph94%30.04 "Hg2 mi
9:20 AM54 °FFog.8 mph100%30.01 "Hg0 mi
8:50 AM55 °FFog.3 mph94%30.01 "Hg1 mi
8:20 AM54 °FFog.7 mph94%30.01 "Hg1 mi
7:50 AM54 °FCool.8 mph94%30.01 "Hg2 mi
7:20 AM54 °FPassing clouds.8 mph94%30.01 "Hg2 mi
6:50 AM55 °FFog.8 mph94%30.01 "Hg2 mi
6:20 AM55 °FPassing clouds.8 mph94%30.01 "Hg2 mi
5:50 AM55 °FPassing clouds.8 mph94%30.01 "Hg2 mi
5:20 AM55 °FPassing clouds.6 mph94%30.04 "Hg3 mi
4:20 AM55 °FCool.9 mph94%30.04 "Hg4 mi
3:50 AM57 °FCool.10 mph88%30.04 "Hg3 mi
3:20 AM57 °FCool.10 mph88%30.04 "Hg4 mi
2:50 AM57 °FCool.9 mph94%30.04 "Hg4 mi
2:20 AM57 °FCool.9 mph94%30.04 "Hg4 mi
Weather by CustomWeather, © 2014

See weather overviewHow to use our weather pages